TimeADT,TemperatureF,Dew PointF,Humidity,Sea Level PressureIn,VisibilityMPH,Wind Direction,Wind SpeedMPH,Gust SpeedMPH,PrecipitationIn,Events,Conditions,WindDirDegrees,DateUTC
12:00 AM,15,,,30.08,0,Calm,Calm,,,,,,2013-05-26 03:00:00
12:00 AM,15.8,-9999,N/A,30.08,0.4,North,2.3,-,N/A,,Unknown,350,2013-05-26 03:00:00
12:08 AM,14.0,-9999,N/A,29.87,4.0,NW,5.8,-,N/A,,Unknown,320,2013-05-26 03:08:00
12:18 AM,14.0,-9999,N/A,29.87,9.0,NW,5.8,-,N/A,,Unknown,310,2013-05-26 03:18:00
12:40 AM,14.0,-9999,N/A,29.87,2.5,NNW,4.6,-,N/A,,Unknown,330,2013-05-26 03:40:00
12:58 AM,14.0,-9999,N/A,29.88,9.0,NW,5.8,-,N/A,,Unknown,320,2013-05-26 03:58:00
1:00 AM,14.0,-9999,N/A,30.09,9.0,NW,6.9,-,N/A,,Unknown,310,2013-05-26 04:00:00
1:28 AM,14.0,-9999,N/A,29.88,9.0,West,5.8,-,N/A,,Unknown,280,2013-05-26 04:28:00
2:00 AM,14.0,-9999,N/A,30.10,9.0,WNW,8.1,-,N/A,,Unknown,300,2013-05-26 05:00:00
2:37 AM,14.0,-9999,N/A,29.89,9.0,NW,8.1,-,N/A,,Unknown,310,2013-05-26 05:37:00
3:00 AM,15,,,30.11,9,NW,5.8,,,,,320,2013-05-26 06:00:00
3:00 AM,14.0,-9999,N/A,30.11,9.0,NW,4.6,-,N/A,,Unknown,320,2013-05-26 06:00:00
3:09 AM,14.0,-9999,N/A,29.90,2.8,North,2.3,-,N/A,,Unknown,360,2013-05-26 06:09:00
3:11 AM,14.0,-9999,N/A,29.90,1.0,Calm,Calm,-,N/A,,Unknown,0,2013-05-26 06:11:00
3:12 AM,14.0,-9999,N/A,29.90,0.6,NNE,2.3,-,N/A,,Unknown,20,2013-05-26 06:12:00
3:14 AM,14.0,-9999,N/A,29.90,0.4,North,2.3,-,N/A,,Unknown,10,2013-05-26 06:14:00
3:16 AM,14.0,-9999,N/A,29.90,0.1,NNE,2.3,-,N/A,,Unknown,20,2013-05-26 06:16:00
3:24 AM,15.8,-9999,N/A,29.90,0.1,NNE,2.3,-,N/A,,Unknown,20,2013-05-26 06:24:00
3:35 AM,14.0,-9999,N/A,29.91,0.6,NE,2.3,-,N/A,,Unknown,40,2013-05-26 06:35:00
3:37 AM,14.0,-9999,N/A,29.91,1.2,Calm,Calm,-,N/A,,Unknown,0,2013-05-26 06:37:00
3:47 AM,14.0,-9999,N/A,29.91,2.5,Calm,Calm,-,N/A,,Unknown,0,2013-05-26 06:47:00
3:57 AM,14.0,-9999,N/A,29.91,7.0,NNE,3.5,-,N/A,,Unknown,20,2013-05-26 06:57:00
4:00 AM,14.0,-9999,N/A,30.13,8.0,North,4.6,-,N/A,,Unknown,360,2013-05-26 07:00:00
4:02 AM,15.8,-9999,N/A,29.91,9.0,North,4.6,-,N/A,,Unknown,360,2013-05-26 07:02:00
4:47 AM,14.0,-9999,N/A,29.92,2.0,ESE,2.3,-,N/A,,Unknown,120,2013-05-26 07:47:00
4:48 AM,14.0,-9999,N/A,29.92,1.1,SE,2.3,-,N/A,,Unknown,130,2013-05-26 07:48:00
4:49 AM,14.0,-9999,N/A,29.92,0.6,SE,2.3,-,N/A,,Unknown,130,2013-05-26 07:49:00
4:51 AM,14.0,-9999,N/A,29.92,0.4,ESE,3.5,-,N/A,,Unknown,120,2013-05-26 07:51:00
4:54 AM,14.0,-9999,N/A,29.92,0.1,ESE,2.3,-,N/A,,Unknown,120,2013-05-26 07:54:00
5:00 AM,14.0,-9999,N/A,30.14,0.1,Calm,Calm,-,N/A,,Unknown,0,2013-05-26 08:00:00
5:08 AM,15.8,-9999,N/A,29.92,0.5,NNW,2.3,-,N/A,,Unknown,340,2013-05-26 08:08:00
5:11 AM,15.8,-9999,N/A,29.92,1.5,NNW,2.3,-,N/A,,Unknown,340,2013-05-26 08:11:00
5:22 AM,15.8,-9999,N/A,29.92,9.0,Calm,Calm,-,N/A,,Unknown,0,2013-05-26 08:22:00
6:00 AM,15,,,30.15,9,West,4.6,,,,,280,2013-05-26 09:00:00
6:00 AM,14.0,-9999,N/A,30.15,9.0,WNW,4.6,-,N/A,,Unknown,290,2013-05-26 09:00:00
7:00 AM,15.8,-9999,N/A,30.16,9.0,WNW,4.6,-,N/A,,Unknown,300,2013-05-26 10:00:00
8:00 AM,15.8,-9999,N/A,30.18,9.0,West,3.5,-,N/A,,Unknown,280,2013-05-26 11:00:00
9:00 AM,19,,,30.19,9,Calm,Calm,,,,,,2013-05-26 12:00:00
9:00 AM,19.4,-9999,N/A,30.19,9.0,Calm,Calm,-,N/A,,Unknown,0,2013-05-26 12:00:00
10:00 AM,17.6,-9999,N/A,30.21,8.0,SW,3.5,-,N/A,,Unknown,220,2013-05-26 13:00:00
11:00 AM,17.6,-9999,N/A,30.22,3.5,SSW,4.6,-,N/A,,Unknown,210,2013-05-26 14:00:00
12:00 PM,18,,,30.22,7,SSW,5.8,,,,,200,2013-05-26 15:00:00
12:00 PM,17.6,-9999,N/A,30.22,7.0,SSW,5.8,-,N/A,,Unknown,200,2013-05-26 15:00:00
12:47 PM,17.6,-9999,N/A,30.00,3.0,SSW,8.1,-,N/A,,Unknown,200,2013-05-26 15:47:00
12:59 PM,17.6,-9999,N/A,30.01,3.5,South,8.1,-,N/A,,Unknown,190,2013-05-26 15:59:00
1:00 PM,17.6,-9999,N/A,30.22,3.5,South,8.1,-,N/A,,Unknown,190,2013-05-26 16:00:00
1:40 PM,17.6,-9999,N/A,30.01,2.4,South,10.4,-,N/A,,Unknown,190,2013-05-26 16:40:00
1:44 PM,17.6,-9999,N/A,30.01,1.1,South,9.2,-,N/A,,Unknown,180,2013-05-26 16:44:00
1:45 PM,17.6,-9999,N/A,30.01,1.0,South,9.2,-,N/A,,Unknown,180,2013-05-26 16:45:00
1:46 PM,17.6,-9999,N/A,30.01,0.6,South,10.4,-,N/A,,Unknown,180,2013-05-26 16:46:00
1:48 PM,17.6,-9999,N/A,30.01,0.4,South,9.2,-,N/A,,Unknown,190,2013-05-26 16:48:00
1:59 PM,17.6,-9999,N/A,30.01,0.5,South,10.4,-,N/A,,Unknown,190,2013-05-26 16:59:00
2:00 PM,17.6,-9999,N/A,30.23,0.5,South,9.2,-,N/A,,Unknown,190,2013-05-26 17:00:00
2:19 PM,17.6,-9999,N/A,30.02,0.4,South,10.4,-,N/A,,Unknown,180,2013-05-26 17:19:00
2:26 PM,17.6,-9999,N/A,30.02,0.1,South,11.5,-,N/A,,Unknown,190,2013-05-26 17:26:00
2:59 PM,17.6,-9999,N/A,30.02,0.4,South,11.5,-,N/A,,Unknown,190,2013-05-26 17:59:00
3:00 PM,17,,,30.24,0,South,11.5,,,,,190,2013-05-26 18:00:00
3:00 PM,17.6,-9999,N/A,30.24,0.4,South,11.5,-,N/A,,Unknown,190,2013-05-26 18:00:00
3:09 PM,17.6,-9999,N/A,30.02,0.1,South,11.5,-,N/A,,Unknown,190,2013-05-26 18:09:00
3:29 PM,17.6,-9999,N/A,30.02,0.2,South,12.7,-,N/A,,Unknown,190,2013-05-26 18:29:00
4:00 PM,17.6,-9999,N/A,30.24,0.2,South,12.7,-,N/A,,Unknown,190,2013-05-26 19:00:00
4:13 PM,17.6,-9999,N/A,30.02,0.1,South,11.5,-,N/A,,Unknown,190,2013-05-26 19:13:00
5:00 PM,17.6,-9999,N/A,30.25,0.1,South,11.5,-,N/A,,Unknown,180,2013-05-26 20:00:00
5:11 PM,17.6,-9999,N/A,30.03,0.5,South,12.7,-,N/A,,Unknown,190,2013-05-26 20:11:00
5:26 PM,17.6,-9999,N/A,30.04,0.4,South,11.5,-,N/A,,Unknown,190,2013-05-26 20:26:00
5:38 PM,17.6,-9999,N/A,30.04,0.8,South,10.4,-,N/A,,Unknown,190,2013-05-26 20:38:00
5:43 PM,17.6,-9999,N/A,30.04,0.6,South,10.4,-,N/A,,Unknown,190,2013-05-26 20:43:00
5:46 PM,17.6,-9999,N/A,30.04,0.4,South,10.4,-,N/A,,Unknown,190,2013-05-26 20:46:00
5:55 PM,17.6,-9999,N/A,30.04,1.0,South,10.4,-,N/A,,Unknown,190,2013-05-26 20:55:00
5:57 PM,17.6,-9999,N/A,30.04,1.8,South,9.2,-,N/A,,Unknown,190,2013-05-26 20:57:00
6:00 PM,17,,,30.26,3,South,9.2,,,,,180,2013-05-26 21:00:00
6:00 PM,17.6,-9999,N/A,30.26,2.6,South,9.2,-,N/A,,Unknown,180,2013-05-26 21:00:00
6:32 PM,17.6,-9999,N/A,30.04,1.4,South,9.2,-,N/A,,Unknown,180,2013-05-26 21:32:00
6:41 PM,17.6,-9999,N/A,30.04,4.0,South,8.1,-,N/A,,Unknown,170,2013-05-26 21:41:00
7:00 PM,17.6,-9999,N/A,30.26,6.0,South,8.1,-,N/A,,Unknown,180,2013-05-26 22:00:00
7:10 PM,17.6,-9999,N/A,30.04,3.0,South,8.1,-,N/A,,Unknown,190,2013-05-26 22:10:00
7:12 PM,17.6,-9999,N/A,30.04,1.4,SSW,8.1,-,N/A,,Unknown,200,2013-05-26 22:12:00
7:22 PM,17.6,-9999,N/A,30.04,4.0,South,8.1,-,N/A,,Unknown,190,2013-05-26 22:22:00
7:37 PM,15.8,-9999,N/A,30.04,3.0,South,6.9,-,N/A,,Unknown,190,2013-05-26 22:37:00
7:39 PM,15.8,-9999,N/A,30.04,1.0,South,6.9,-,N/A,,Unknown,190,2013-05-26 22:39:00
7:40 PM,15.8,-9999,N/A,30.04,0.6,South,6.9,-,N/A,,Unknown,190,2013-05-26 22:40:00
7:41 PM,15.8,-9999,N/A,30.04,0.4,SSW,8.1,-,N/A,,Unknown,200,2013-05-26 22:41:00
7:51 PM,15.8,-9999,N/A,30.05,0.8,SSW,6.9,-,N/A,,Unknown,200,2013-05-26 22:51:00
7:54 PM,15.8,-9999,N/A,30.05,0.6,SSW,8.1,-,N/A,,Unknown,200,2013-05-26 22:54:00
7:56 PM,15.8,-9999,N/A,30.05,0.4,SSW,8.1,-,N/A,,Unknown,200,2013-05-26 22:56:00
7:58 PM,15.8,-9999,N/A,30.04,0.1,South,8.1,-,N/A,,Unknown,190,2013-05-26 22:58:00
8:00 PM,15.8,-9999,N/A,30.26,0.1,South,8.1,-,N/A,,Unknown,190,2013-05-26 23:00:00
8:30 PM,15.8,-9999,N/A,30.05,0.1,SSW,8.1,-,N/A,,Unknown,200,2013-05-26 23:30:00
9:00 PM,16,,,30.26,0,SSW,8.1,,,,,210,2013-05-27 00:00:00
9:00 PM,15.8,-9999,N/A,30.26,0.1,SSW,9.2,-,N/A,,Unknown,210,2013-05-27 00:00:00
10:00 PM,15.8,-9999,N/A,30.26,0.1,SSW,9.2,-,N/A,,Unknown,200,2013-05-27 01:00:00
10:28 PM,15.8,-9999,N/A,30.04,0.1,South,9.2,-,N/A,,Unknown,190,2013-05-27 01:28:00
11:00 PM,15.8,-9999,N/A,30.26,0.1,SSW,8.1,-,N/A,,Unknown,200,2013-05-27 02:00:00
11:04 PM,15.8,-9999,N/A,30.04,0.1,SSW,8.1,-,N/A,,Unknown,200,2013-05-27 02:04:00